Voltar ao catálogo

HULIANWANG DIGUI-49

AtivoComunicaçõesLEO
NORAD 65106·PAYLOAD·🇨🇳 China

Lançado Aug 4, 2025 de Wenchang Space Launch Site

Loading…

Próximas Passagens (próximas 24 horas)

TLE

AtualizadoSource: Space-Track

Época: Sep 14, 2026, 20:25 UTC

1 65106U 25168A   26257.85070107 -.00000081  00000-0  93072-4 0  9995
2 65106  50.0052   4.3785 0007477  11.5254 348.5788 13.29325892 54615

Acompanhe HULIANWANG DIGUI-49 em tempo real com AllMySat

Download on the App Store